| time (UTC) | temp F | wind direction | speed knots | gust knots | rain 1hr in | rain 24hr in | rain mn in | humidity % | barometer mb |
| 20260504160256 | 68 | 229 | 1.7 | 6.1 | 0.00 | 0.00 | 0.00 | 41 | 1014.0 |
| 20260504150716 | 66 | 144 | 1.7 | 6.1 | 0.00 | 0.00 | 0.00 | 43 | 1014.3 |
| 20260504150213 | 65 | 159 | 2.6 | 7.0 | 0.00 | 0.00 | 0.00 | 42 | 1014.3 |
| 20260504141142 | 63 | 280 | 2.6 | 2.6 | 0.00 | 0.00 | 0.00 | 47 | 1014.4 |
| 20260504140639 | 62 | 175 | 3.5 | 6.1 | 0.00 | 0.00 | 0.00 | 45 | 1014.4 |
| 20260504140135 | 61 | 199 | 3.5 | 3.5 | 0.00 | 0.00 | 0.00 | 47 | 1014.6 |
| 20260504130603 | 59 | 176 | 3.5 | 6.1 | 0.00 | 0.00 | 0.00 | 50 | 1015.0 |
| 20260504110445 | 41 | 128 | 0.0 | 0.0 | 0.00 | 0.00 | 0.00 | 88 | 1015.8 |
| 20260504100406 | 40 | 132 | 0.0 | 0.9 | 0.00 | 0.00 | 0.00 | 88 | 1015.7 |
| 20260504081754 | 40 | 110 | 0.0 | 0.0 | 0.00 | 0.00 | 0.00 | 88 | 1016.1 |
| 20260504081250 | 41 | 34 | 0.0 | 0.0 | 0.00 | 0.00 | 0.00 | 86 | 1015.8 |
| 20260504080747 | 40 | 125 | 0.0 | 0.0 | 0.00 | 0.00 | 0.00 | 84 | 1015.9 |
| 20260504080243 | 40 | 125 | 0.0 | 0.0 | 0.00 | 0.00 | 0.00 | 84 | 1015.9 |
| 20260504070211 | 41 | 85 | 0.0 | 0.0 | 0.00 | 0.00 | 0.00 | 85 | 1016.2 |
| 20260504060131 | 41 | 153 | 0.0 | 0.0 | 0.00 | 0.00 | 0.00 | 86 | 1016.5 |
| 20260504050559 | 40 | 231 | 0.0 | 0.0 | 0.00 | 0.00 | 0.00 | 83 | 1016.7 |
| 20260504045553 | 40 | 173 | 0.0 | 0.0 | 0.00 | 0.00 | 0.00 | 86 | 1016.9 |
| 20260504045048 | 40 | 180 | 0.0 | 0.0 | 0.00 | 0.00 | 0.00 | 84 | 1016.9 |
| 20260504044546 | 40 | 191 | 0.0 | 0.0 | 0.00 | 0.00 | 0.00 | 83 | 1017.0 |
| 20260504044043 | 39 | 191 | 0.9 | 0.9 | 0.00 | 0.00 | 0.00 | 80 | 1016.9 |
| 20260504043540 | 39 | 126 | 0.0 | 0.9 | 0.00 | 0.00 | 0.00 | 83 | 1016.7 |
| 20260504043037 | 39 | 106 | 0.0 | 0.0 | 0.00 | 0.00 | 0.00 | 85 | 1016.7 |
| 20260504042534 | 39 | 106 | 0.0 | 0.0 | 0.00 | 0.00 | 0.00 | 86 | 1016.7 |
| 20260504042031 | 39 | 213 | 0.0 | 0.0 | 0.00 | 0.00 | 0.00 | 84 | 1016.5 |
| 20260504041527 | 39 | 172 | 0.9 | 0.9 | 0.00 | 0.00 | 0.00 | 84 | 1016.7 |
| 20260504041023 | 39 | 138 | 0.9 | 0.9 | 0.00 | 0.00 | 0.00 | 86 | 1016.9 |
| 20260504040521 | 38 | 77 | 0.0 | 0.0 | 0.00 | 0.00 | 0.00 | 85 | 1016.5 |
| 20260504040018 | 38 | 73 | 0.9 | 0.9 | 0.00 | 0.00 | 0.00 | 83 | 1016.6 |
| 20260504035514 | 39 | 159 | 0.0 | 0.9 | 0.00 | 0.00 | 0.00 | 82 | 1017.0 |
| 20260504035010 | 39 | 148 | 0.0 | 0.9 | 0.00 | 0.00 | 0.00 | 81 | 1016.9 |
| 20260504034508 | 38 | 131 | 1.7 | 1.7 | 0.00 | 0.00 | 0.00 | 80 | 1017.0 |
| 20260504034005 | 38 | 226 | 0.0 | 0.9 | 0.00 | 0.00 | 0.00 | 80 | 1016.7 |
| 20260504033503 | 38 | 158 | 0.9 | 0.9 | 0.00 | 0.00 | 0.00 | 80 | 1016.5 |
| 20260504033000 | 38 | 105 | 0.9 | 0.9 | 0.00 | 0.00 | 0.00 | 75 | 1016.6 |
| 20260504032457 | 37 | 101 | 0.9 | 1.7 | 0.00 | 0.00 | 0.00 | 80 | 1016.9 |
| 20260504031953 | 36 | 85 | 0.0 | 0.9 | 0.00 | 0.00 | 0.00 | 83 | 1016.7 |
| 20260504031450 | 37 | 81 | 0.0 | 0.0 | 0.00 | 0.00 | 0.00 | 85 | 1016.7 |
| 20260504030947 | 37 | 79 | 0.0 | 0.9 | 0.00 | 0.00 | 0.00 | 84 | 1016.7 |
| 20260504030444 | 36 | 89 | 0.9 | 0.9 | 0.00 | 0.00 | 0.00 | 84 | 1017.0 |
| 20260504025940 | 36 | 246 | 0.0 | 0.0 | 0.00 | 0.00 | 0.00 | 83 | 1016.7 |
| 20260504025437 | 37 | 192 | 0.0 | 0.0 | 0.00 | 0.00 | 0.00 | 81 | 1016.6 |
| 20260504024934 | 37 | 190 | 1.7 | 1.7 | 0.00 | 0.00 | 0.00 | 83 | 1016.5 |
| 20260504024431 | 36 | 150 | 0.0 | 0.9 | 0.00 | 0.00 | 0.00 | 84 | 1016.6 |
| 20260504023928 | 36 | 102 | 0.0 | 0.0 | 0.00 | 0.00 | 0.00 | 83 | 1016.5 |
| 20260504023425 | 36 | 102 | 0.0 | 0.0 | 0.00 | 0.00 | 0.00 | 83 | 1016.5 |
| 20260504022920 | 36 | 103 | 0.0 | 0.0 | 0.00 | 0.00 | 0.00 | 81 | 1016.9 |
| 20260504022417 | 37 | 122 | 0.0 | 0.0 | 0.00 | 0.00 | 0.00 | 81 | 1016.5 |
| 20260504021913 | 37 | 122 | 0.0 | 0.0 | 0.00 | 0.00 | 0.00 | 82 | 1016.6 |
| 20260504021411 | 0 | 0.0 | 0.0 | 0.00 | 0.00 | 0.00 | 1016.7 | ||
| 20260504020908 | 37 | 94 | 0.0 | 0.0 | 0.00 | 0.00 | 0.00 | 79 | 1016.7 |
| 20260504020404 | 37 | 94 | 0.0 | 0.0 | 0.00 | 0.00 | 0.00 | 79 | 1016.6 |
| 20260504015900 | 38 | 94 | 0.0 | 0.0 | 0.00 | 0.00 | 0.00 | 78 | 1016.4 |
| 20260504015357 | 38 | 94 | 0.0 | 0.0 | 0.00 | 0.00 | 0.00 | 78 | 1016.3 |
| 20260504014853 | 0 | 0.0 | 0.0 | 0.00 | 0.00 | 0.00 | 1016.3 | ||
| 20260504014349 | 39 | 147 | 0.9 | 0.9 | 0.00 | 0.00 | 0.00 | 77 | 1016.3 |
| 20260504013847 | 39 | 147 | 0.9 | 0.9 | 0.00 | 0.00 | 0.00 | 77 | 1016.3 |
| 20260504013345 | 0 | 0.0 | 0.0 | 0.00 | 0.00 | 0.00 | 1016.3 | ||
| 20260504012841 | 40 | 158 | 0.0 | 0.9 | 0.00 | 0.00 | 0.00 | 73 | 1016.1 |
| 20260504012339 | 40 | 158 | 0.0 | 0.9 | 0.00 | 0.00 | 0.00 | 73 | 1016.1 |
| 20260504011836 | 40 | 157 | 0.0 | 0.0 | 0.00 | 0.00 | 0.00 | 72 | 1016.0 |
| 20260504011332 | 41 | 148 | 0.9 | 0.9 | 0.00 | 0.00 | 0.00 | 73 | 1015.9 |
| 20260504010828 | 0 | 0.0 | 0.0 | 0.00 | 0.00 | 0.00 | 1015.7 | ||
| 20260504010324 | 0 | 0.0 | 0.0 | 0.00 | 0.00 | 0.00 | 1015.4 | ||
| 20260504005821 | 0 | 0.0 | 0.0 | 0.00 | 0.00 | 0.00 | 1015.8 | ||
| 20260504005318 | 0 | 0.0 | 0.0 | 0.00 | 0.00 | 0.00 | 1015.8 | ||
| 20260504004816 | 0 | 0.0 | 0.0 | 0.00 | 0.00 | 0.00 | 1015.6 | ||
| 20260504004313 | 43 | 312 | 0.0 | 0.0 | 0.00 | 0.00 | 0.00 | 66 | 1015.7 |
| 20260504003809 | 43 | 312 | 0.0 | 0.0 | 0.00 | 0.00 | 0.00 | 66 | 1015.5 |
| 20260504003307 | 0 | 0.0 | 0.0 | 0.00 | 0.00 | 0.00 | 1015.6 | ||
| 20260504002803 | 0 | 0.0 | 0.0 | 0.00 | 0.00 | 0.00 | 1015.6 | ||
| 20260504002300 | 0 | 0.0 | 0.0 | 0.00 | 0.00 | 0.00 | 1015.5 | ||
| 20260504001758 | 0 | 0.0 | 0.0 | 0.00 | 0.00 | 0.00 | 1015.5 | ||
| 20260504001255 | 47 | 148 | 0.9 | 0.9 | 0.00 | 0.00 | 0.00 | 54 | 1015.6 |
| 20260504000752 | 47 | 148 | 0.9 | 0.9 | 0.00 | 0.00 | 0.00 | 54 | 1015.5 |
| 20260504000248 | 48 | 185 | 0.0 | 0.9 | 0.00 | 0.00 | 0.00 | 54 | 1015.5 |
| 20260503235747 | 49 | 190 | 0.9 | 1.7 | 0.00 | 0.00 | 0.00 | 53 | 1015.4 |
| 20260503235243 | 49 | 158 | 0.9 | 1.7 | 0.00 | 0.00 | 0.00 | 47 | 1015.5 |
| 20260503234741 | 50 | 65 | 0.9 | 0.9 | 0.00 | 0.00 | 0.00 | 48 | 1015.4 |
| 20260503234239 | 51 | 318 | 3.5 | 3.5 | 0.00 | 0.00 | 0.00 | 46 | 1015.5 |
| 20260503233735 | 53 | 162 | 0.9 | 0.9 | 0.00 | 0.00 | 0.00 | 44 | 1015.5 |
| 20260503233231 | 53 | 116 | 0.0 | 0.9 | 0.00 | 0.00 | 0.00 | 36 | 1015.6 |
| 20260503232728 | 53 | 169 | 0.0 | 0.9 | 0.00 | 0.00 | 0.00 | 35 | 1015.3 |
| 20260503232226 | 54 | 146 | 0.9 | 0.9 | 0.00 | 0.00 | 0.00 | 36 | 1015.5 |
| 20260503231724 | 54 | 317 | 3.5 | 3.5 | 0.00 | 0.00 | 0.00 | 34 | 1015.5 |
| 20260503231220 | 54 | 324 | 1.7 | 2.6 | 0.00 | 0.00 | 0.00 | 36 | 1015.5 |
| 20260503230716 | 55 | 20 | 1.7 | 2.6 | 0.00 | 0.00 | 0.00 | 33 | 1015.2 |
| 20260503230214 | 55 | 154 | 0.9 | 0.9 | 0.00 | 0.00 | 0.00 | 35 | 1015.2 |
| 20260503225711 | 55 | 154 | 0.9 | 0.9 | 0.00 | 0.00 | 0.00 | 35 | 1015.4 |
| 20260503225211 | 55 | 178 | 0.9 | 0.9 | 0.00 | 0.00 | 0.00 | 34 | 1015.4 |
| 20260503224709 | 55 | 211 | 0.9 | 0.9 | 0.00 | 0.00 | 0.00 | 35 | 1015.4 |
| 20260503224207 | 55 | 183 | 0.9 | 0.9 | 0.00 | 0.00 | 0.00 | 34 | 1015.4 |
| 20260503223704 | 56 | 295 | 2.6 | 7.0 | 0.00 | 0.00 | 0.00 | 33 | 1015.2 |
| 20260503223201 | 56 | 309 | 6.1 | 7.8 | 0.00 | 0.00 | 0.00 | 32 | 1015.2 |
| 20260503222657 | 56 | 309 | 6.1 | 7.8 | 0.00 | 0.00 | 0.00 | 32 | 1015.3 |
| 20260503222155 | 56 | 281 | 2.6 | 3.5 | 0.00 | 0.00 | 0.00 | 34 | 1015.2 |
| 20260503221654 | 56 | 281 | 2.6 | 3.5 | 0.00 | 0.00 | 0.00 | 34 | 1015.2 |
| 20260503221150 | 56 | 325 | 0.9 | 2.6 | 0.00 | 0.00 | 0.00 | 32 | 1015.2 |
| 20260503220647 | 0 | 0.0 | 0.0 | 0.00 | 0.00 | 0.00 | 1015.4 | ||
| 20260503220143 | 0 | 0.0 | 0.0 | 0.00 | 0.00 | 0.00 | 1015.2 | ||
| 20260503215641 | 58 | 191 | 1.7 | 1.7 | 0.00 | 0.00 | 0.00 | 33 | 1015.4 |
| 20260503215137 | 58 | 191 | 1.7 | 1.7 | 0.00 | 0.00 | 0.00 | 33 | 1015.3 |
| 20260503214636 | 58 | 300 | 3.5 | 7.8 | 0.00 | 0.00 | 0.00 | 31 | 1015.5 |
| 20260503214132 | 58 | 35 | 5.2 | 6.1 | 0.00 | 0.00 | 0.00 | 33 | 1015.2 |
| 20260503213626 | 57 | 279 | 0.9 | 1.7 | 0.00 | 0.00 | 0.00 | 34 | 1015.3 |
| 20260503213122 | 57 | 341 | 6.1 | 7.8 | 0.00 | 0.00 | 0.00 | 33 | 1015.5 |
| 20260503212619 | 57 | 300 | 7.0 | 8.7 | 0.00 | 0.00 | 0.00 | 34 | 1015.6 |
| 20260503212116 | 59 | 340 | 0.9 | 6.1 | 0.00 | 0.00 | 0.00 | 33 | 1015.4 |
| 20260503211609 | 59 | 272 | 1.7 | 2.6 | 0.00 | 0.00 | 0.00 | 37 | 1015.4 |
| 20260503211104 | 58 | 327 | 1.7 | 3.5 | 0.00 | 0.00 | 0.00 | 37 | 1015.5 |
| 20260503210601 | 56 | 19 | 4.3 | 7.0 | 0.00 | 0.00 | 0.00 | 31 | 1015.4 |
| 20260503210056 | 56 | 326 | 7.8 | 9.6 | 0.00 | 0.00 | 0.00 | 34 | 1015.4 |
| 20260503205553 | 57 | 282 | 6.1 | 12.2 | 0.00 | 0.00 | 0.00 | 33 | 1015.6 |
| 20260503205049 | 58 | 311 | 5.2 | 7.8 | 0.00 | 0.00 | 0.00 | 35 | 1015.6 |
| 20260503204546 | 58 | 340 | 2.6 | 5.2 | 0.00 | 0.00 | 0.00 | 32 | 1015.8 |
| 20260503204043 | 57 | 314 | 3.5 | 5.2 | 0.00 | 0.00 | 0.00 | 34 | 1015.5 |
| 20260503203535 | 58 | 79 | 0.9 | 1.7 | 0.00 | 0.00 | 0.00 | 32 | 1015.7 |
| 20260503203032 | 57 | 150 | 1.7 | 1.7 | 0.00 | 0.00 | 0.00 | 37 | 1015.7 |
| 20260503202530 | 57 | 325 | 3.5 | 6.1 | 0.00 | 0.00 | 0.00 | 36 | 1015.7 |
| 20260503202027 | 57 | 325 | 3.5 | 6.1 | 0.00 | 0.00 | 0.00 | 36 | 1015.5 |
| 20260503201520 | 56 | 330 | 5.2 | 6.1 | 0.00 | 0.00 | 0.00 | 34 | 1015.8 |
| 20260503201017 | 56 | 183 | 2.6 | 2.6 | 0.00 | 0.00 | 0.00 | 35 | 1015.9 |
| 20260503200513 | 56 | 299 | 1.7 | 7.0 | 0.00 | 0.00 | 0.00 | 36 | 1016.0 |
| 20260503200010 | 55 | 303 | 5.2 | 6.1 | 0.00 | 0.00 | 0.00 | 36 | 1016.1 |
| 20260503195507 | 56 | 345 | 5.2 | 7.0 | 0.00 | 0.00 | 0.00 | 39 | 1016.2 |
| 20260503195003 | 56 | 350 | 5.2 | 6.1 | 0.00 | 0.00 | 0.00 | 34 | 1016.0 |
| 20260503194500 | 56 | 323 | 8.7 | 9.6 | 0.00 | 0.00 | 0.00 | 34 | 1016.1 |
| 20260503193955 | 58 | 300 | 7.8 | 9.6 | 0.00 | 0.00 | 0.00 | 31 | 1016.1 |
| 20260503193451 | 57 | 338 | 1.7 | 1.7 | 0.00 | 0.00 | 0.00 | 35 | 1016.5 |
| 20260503192947 | 56 | 310 | 5.2 | 7.0 | 0.00 | 0.00 | 0.00 | 30 | 1016.2 |
| 20260503192444 | 56 | 331 | 7.8 | 9.6 | 0.00 | 0.00 | 0.00 | 33 | 1016.3 |
| 20260503191939 | 55 | 356 | 2.6 | 2.6 | 0.00 | 0.00 | 0.00 | 36 | 1016.3 |
| 20260503191437 | 56 | 309 | 6.1 | 8.7 | 0.00 | 0.00 | 0.00 | 35 | 1016.5 |
| 20260503190933 | 57 | 276 | 0.9 | 0.9 | 0.00 | 0.00 | 0.00 | 39 | 1016.7 |
| 20260503190431 | 57 | 311 | 3.5 | 3.5 | 0.00 | 0.00 | 0.00 | 36 | 1016.5 |
| 20260503185927 | 56 | 294 | 5.2 | 9.6 | 0.00 | 0.00 | 0.00 | 34 | 1016.9 |
| 20260503185424 | 56 | 339 | 7.8 | 8.7 | 0.00 | 0.00 | 0.00 | 35 | 1016.9 |
| 20260503184923 | 55 | 358 | 2.6 | 5.2 | 0.00 | 0.00 | 0.00 | 41 | 1017.1 |
| 20260503184420 | 56 | 316 | 7.8 | 8.7 | 0.00 | 0.00 | 0.00 | 36 | 1017.1 |
| 20260503183916 | 56 | 233 | 1.7 | 2.6 | 0.00 | 0.00 | 0.00 | 33 | 1017.0 |
| 20260503183413 | 55 | 301 | 5.2 | 8.7 | 0.00 | 0.00 | 0.00 | 36 | 1016.9 |
| 20260503182910 | 56 | 210 | 4.3 | 5.2 | 0.00 | 0.00 | 0.00 | 33 | 1017.0 |
| 20260503182409 | 54 | 307 | 2.6 | 6.1 | 0.00 | 0.00 | 0.00 | 36 | 1016.9 |
| 20260503181906 | 55 | 317 | 7.0 | 7.8 | 0.00 | 0.00 | 0.00 | 35 | 1017.0 |
| 20260503181403 | 0 | 0.0 | 0.0 | 0.00 | 0.00 | 0.00 | 1017.0 | ||
| 20260503180859 | 0 | 0.0 | 0.0 | 0.00 | 0.00 | 0.00 | 1017.1 | ||
| 20260503180357 | 53 | 288 | 10.4 | 13.0 | 0.00 | 0.00 | 0.00 | 36 | 1017.2 |
| 20260503175853 | 53 | 288 | 10.4 | 13.0 | 0.00 | 0.00 | 0.00 | 36 | 1017.2 |
| 20260503175352 | 53 | 18 | 0.9 | 1.7 | 0.00 | 0.00 | 0.00 | 35 | 1017.1 |
| 20260503174847 | 53 | 18 | 0.9 | 1.7 | 0.00 | 0.00 | 0.00 | 35 | 1017.1 |
| 20260503174345 | 54 | 143 | 6.1 | 7.0 | 0.00 | 0.00 | 0.00 | 37 | 1017.1 |
| 20260503173845 | 53 | 163 | 1.7 | 5.2 | 0.00 | 0.00 | 0.00 | 37 | 1017.2 |
| 20260503173342 | 52 | 296 | 3.5 | 3.5 | 0.00 | 0.00 | 0.00 | 38 | 1017.1 |
| 20260503172838 | 53 | 359 | 7.0 | 7.8 | 0.00 | 0.00 | 0.00 | 39 | 1017.2 |
| 20260503172336 | 52 | 42 | 4.3 | 7.0 | 0.00 | 0.00 | 0.00 | 37 | 1017.4 |
| 20260503171832 | 53 | 212 | 0.9 | 1.7 | 0.00 | 0.00 | 0.00 | 44 | 1017.4 |
| 20260503171329 | 53 | 212 | 0.9 | 1.7 | 0.00 | 0.00 | 0.00 | 44 | 1017.4 |
| 20260503170826 | 53 | 170 | 1.7 | 1.7 | 0.00 | 0.00 | 0.00 | 39 | 1017.5 |
| 20260503170323 | 52 | 214 | 3.5 | 6.1 | 0.00 | 0.00 | 0.00 | 42 | 1017.5 |